Starlink 31387

operational
NORAD ID: 59407 Int'l Des: 2024-064 Owner: SPXS Country: US Constellation: starlink
LEOCIRCULAR

Starlink 31387について

説明を読み込み中...

リアルタイム位置

3D地球を読み込み中...

次回通過

高度履歴

Altitude vs Time

uPlot chart will show altitude changes over time

軌道要素

1 59407U 24064K 25353.72732250 .00002179 00000-0 88660-4 0 9998
2 59407 43.0011 148.0098 0001543 282.1568 77.9110 15.27588614 96996
Epoch: Dec 19, 2025 • Age: 19 hours

現在のステータス

高度 482.0 km
速度 7.63 km/s
衛星直下点 12.12°N, 118.01°W
打ち上げ日 Apr 5, 2024
運用期間 1.7 years
タイプ internet

技術仕様

分類 Payload
質量 730.00 kg
乾燥質量 700.00 kg
総質量 730.00 kg
長さ 0.30 m
直径 4.10 m
スパン 29.00 m
形状 Box + pan
製造者 SPXS
バスタイプ Starlink V2M
フェーズステータス In Orbit
所有者/国 SPXS/US

大規模コンステレーション

Loading constellations...